Kayseri, Turkey

9:23 AM +03 on February 24, 2017 (GMT +0300)
Erkilet Air Base

Weather History for LTAU - January, 2013

Change the Weather History Date:

Friday, January 11, 2013

  Actual Average Record
Temperature  
Mean Temperature 11 °F -  
Max Temperature 24 °F 40 °F 57 °F (2003)
Min Temperature -2 °F 21 °F -13 °F (2002)
Degree Days  
Heating Degree Days 54    
Moisture  
Dew Point 7 °F    
Average Humidity 83    
Maximum Humidity 99    
Minimum Humidity 56    
Precipitation  
Precipitation 0.00 in - - ()
Sea Level Pressure  
Sea Level Pressure 30.17 in    
Wind  
Wind Speed 2 mph ()    
Max Wind Speed 7 mph    
Max Gust Speed -    
Visibility 4.7 miles    
Events      
Averages and records for this station are not official NWS values.
T = Trace of Precipitation, MM = Missing Value Source: Averaged Metar Reports

Daily Weather History Graph

Daily Weather History Graph

Search for Another Location

Airport or City:

Trip Planner

Search our weather history database for the weather conditions in past years. The results will help you decide how hot, cold, wet, or windy it might be!

Date:

Astronomy

Jan. 11, 2013 Rise Set
Actual Time 6:56 AM EET 4:36 PM EET
Civil Twilight 6:26 AM EET 5:05 PM EET
Nautical Twilight 5:53 AM EET 5:38 PM EET
Astronomical Twilight 5:21 AM EET 6:10 PM EET
Moon 6:11 AM EET (1/11) 4:29 PM EET (1/11)
Length of Visible Light 10h 38m
Length of Day
9h 40m
Waning Crescent, 0% of the Moon is Illuminated
Jan 11
Waning Crescent
Jan 11
New
Jan 19
First Quarter
Jan 27
Full
Feb 3
Last Quarter

Hourly Weather History & Observations

Time (EET) Temp. Windchill Dew Point Humidity Pressure Visibility Wind Dir Wind Speed Gust Speed Precip Events Conditions
12:20 AM 3.2 °F -6.2 °F -0.4 °F 85% 30.15 in - NNE 4.6 mph - N/A   Clear
12:50 AM 6.8 °F -4.8 °F 3.2 °F 85% 30.15 in - NNE 6.9 mph - N/A   Clear
1:20 AM 1.4 °F -8.3 °F -0.4 °F 92% 30.15 in - NE 4.6 mph - N/A   Clear
1:50 AM 3.2 °F - -0.4 °F 85% 30.15 in 5.0 mi Calm Calm - N/A   Unknown
2:00 AM 3 °F - 3 °F 99%  in 5 mi Calm Calm - -   Mist
2:20 AM 1.4 °F - -2.2 °F 85% 30.15 in 3.7 mi NW 1.2 mph - N/A   Unknown
2:50 AM 1.4 °F - -2.2 °F 85% 30.15 in 4.3 mi NNE 1.2 mph - N/A   Unknown
3:20 AM 1.4 °F - -2.2 °F 85% 30.15 in - NNE 1.2 mph - N/A   Clear
3:50 AM -0.4 °F - -2.2 °F 92% 30.15 in - Calm Calm - N/A   Clear
4:20 AM -0.4 °F - -4.0 °F 85% 30.15 in - Calm Calm - N/A   Clear
4:50 AM -0.4 °F - -2.2 °F 92% 30.15 in - Calm Calm - N/A   Clear
5:20 AM 3.2 °F - 1.4 °F 92% 30.15 in 5.6 mi NE 1.2 mph - N/A   Unknown
5:50 AM 1.4 °F - -2.2 °F 85% 30.18 in 5.0 mi Calm Calm - N/A   Unknown
6:20 AM 1.4 °F - -2.2 °F 85% 30.18 in 5.6 mi Calm Calm - N/A   Unknown
6:50 AM 3.2 °F - -0.4 °F 85% 30.18 in 4.3 mi NNE 1.2 mph - N/A   Unknown
7:20 AM 1.4 °F - -2.2 °F 85% 30.18 in 5.6 mi North 2.3 mph - N/A   Unknown
7:50 AM 5.0 °F -2.1 °F 1.4 °F 85% 30.18 in - NE 3.5 mph - N/A   Clear
8:00 AM 4 °F - 4 °F 97%  in 6 mi NNE 3.5 mph - -   Mist
8:20 AM 5.0 °F - 1.4 °F 85% 30.21 in 4.3 mi Variable 1.2 mph - N/A   Unknown
8:50 AM 8.6 °F - 5.0 °F 85% 30.21 in 5.0 mi Variable 1.2 mph - N/A   Unknown
9:20 AM 10.4 °F - 6.8 °F 85% 30.21 in 4.3 mi NNE 2.3 mph - N/A   Unknown
9:50 AM 12.2 °F 6.1 °F 8.6 °F 85% 30.21 in 5.6 mi NNE 3.5 mph - N/A   Unknown
10:20 AM 14.0 °F - 8.6 °F 79% 30.21 in - Calm Calm - N/A   Clear
10:50 AM 15.8 °F - 10.4 °F 79% 30.21 in 5.6 mi ENE 1.2 mph - N/A   Unknown
11:20 AM 17.6 °F - 10.4 °F 73% 30.18 in - Calm Calm - N/A   Clear
11:50 AM 17.6 °F 12.3 °F 12.2 °F 79% 30.18 in - North 3.5 mph - N/A   Clear
12:20 PM 19.4 °F 12.8 °F 12.2 °F 74% 30.18 in - NNE 4.6 mph - N/A   Clear
12:50 PM 21.2 °F 14.9 °F 12.2 °F 68% 30.15 in - NE 4.6 mph - N/A   Clear
1:20 PM 21.2 °F - 14.0 °F 74% 30.15 in - Variable 1.2 mph - N/A   Clear
1:50 PM 23.0 °F - 14.0 °F 68% 30.15 in - Calm Calm - N/A   Clear
2:00 PM 24 °F - 15 °F 56%  in 6 mi Calm Calm - -   Haze
2:20 PM 23.0 °F - 14.0 °F 68% 30.15 in - Calm Calm - N/A   Clear
2:50 PM 23.0 °F - 14.0 °F 68% 30.15 in 6.2 mi Variable 2.3 mph - N/A   Mostly Cloudy
3:20 PM 23.0 °F - 14.0 °F 68% 30.15 in 6.2 mi NE 2.3 mph - N/A   Mostly Cloudy
3:50 PM 23.0 °F 18.4 °F 15.8 °F 74% 30.15 in 6.2 mi NE 3.5 mph - N/A   Mostly Cloudy
4:20 PM 23.0 °F - 15.8 °F 74% 30.15 in 6.2 mi Calm Calm - N/A   Scattered Clouds
4:50 PM 21.2 °F - 14.0 °F 74% 30.15 in 6.2 mi North 2.3 mph - N/A   Scattered Clouds
5:20 PM 17.6 °F - 12.2 °F 79% 30.15 in 6.2 mi Calm Calm - N/A   Scattered Clouds
5:50 PM 15.8 °F 10.2 °F 10.4 °F 79% 30.18 in 5.6 mi NNE 3.5 mph - N/A   Scattered Clouds
6:20 PM 12.2 °F - 10.4 °F 92% 30.18 in 5.0 mi NE 2.3 mph - N/A   Scattered Clouds
6:50 PM 14.0 °F - 12.2 °F 93% 30.18 in 3.7 mi Calm Calm - N/A   Scattered Clouds
7:20 PM 10.4 °F - 8.6 °F 92% 30.18 in 3.7 mi Variable 2.3 mph - N/A   Scattered Clouds
7:50 PM 12.2 °F - 10.4 °F 92% 30.18 in 3.7 mi Variable 2.3 mph - N/A   Scattered Clouds
8:00 PM 12 °F - 11 °F 95%  in 4 mi ENE 2.3 mph - -   Mist
8:20 PM 10.4 °F - 6.8 °F 85% 30.18 in 3.7 mi Calm Calm - N/A   Scattered Clouds
8:50 PM 12.2 °F - 10.4 °F 92% 30.21 in 3.7 mi Variable 2.3 mph - N/A   Scattered Clouds
9:20 PM 12.2 °F - 8.6 °F 85% 30.21 in 3.7 mi Variable 1.2 mph - N/A   Scattered Clouds
9:50 PM 10.4 °F - 6.8 °F 85% 30.21 in 3.7 mi Calm Calm - N/A   Scattered Clouds
10:20 PM 10.4 °F - 8.6 °F 92% 30.21 in 3.7 mi Variable 1.2 mph - N/A   Scattered Clouds
10:50 PM 8.6 °F - 5.0 °F 85% 30.21 in 2.2 mi Variable 2.3 mph - N/A   Scattered Clouds
11:20 PM 8.6 °F - 6.8 °F 92% 30.21 in 2.5 mi Variable 1.2 mph - N/A   Scattered Clouds
11:50 PM 8.6 °F - 5.0 °F 85% 30.21 in 3.7 mi Variable 1.2 mph - N/A   Scattered Clouds